TELLUMGE Weather Reports


time (UTC)temp
C
wind
direction
speed
KPH
gust
KPH
rain 1hr
cm
rain 24hr
cm
rain mn
cm
humidity
%
barometer
mb
20260509224507 22 56 1.6 8.0 0.00 0.00 0.00 80 1022.1
20260509223011 22 318 1.6 11.3 0.00 0.00 0.00 81 1021.9
20260509221513 22 28 1.6 9.7 0.00 0.00 0.00 81 1021.8
20260509220025 21 72 1.6 8.0 0.00 0.00 0.00 83 1021.7
20260509214504 21 54 0.0 3.2 0.00 0.00 0.00 84 1021.5
20260509213009 21 96 1.6 8.0 0.00 0.00 0.00 85 1021.4
20260509211513 21 100 1.6 11.3 0.00 0.00 0.00 85 1021.1
20260509210021 20 62 1.6 8.0 0.00 0.00 0.00 86 1020.9
20260509204522 20 53 4.8 12.9 0.00 0.00 0.00 86 1020.6
20260509203011 20 57 4.8 12.9 0.00 0.00 0.00 86 1020.5
20260509201511 20 49 1.6 11.3 0.00 0.00 0.00 87 1020.3
20260509200013 20 61 1.6 6.4 0.00 0.00 0.00 87 1020.2
20260509194519 20 52 1.6 9.7 0.00 0.00 0.00 87 1020.0
20260509193023 20 31 4.8 9.7 0.00 0.00 0.00 88 1019.9
20260509191516 20 91 1.6 8.0 0.00 0.00 0.00 87 1019.8
20260509190017 20 89 1.6 12.9 0.00 0.00 0.00 87 1019.6
20260509184516 20 52 3.2 11.3 0.00 0.00 0.00 88 1019.4
20260509183022 19 6 0.0 4.8 0.00 0.00 0.00 88 1019.5
20260509181524 20 68 4.8 9.7 0.00 0.00 0.00 88 1019.5
20260509180011 19 69 1.6 6.4 0.00 0.00 0.00 87 1019.5
20260509174514 20 70 1.6 9.7 0.00 0.00 0.00 87 1019.4
20260509173019 20 27 4.8 11.3 0.00 0.00 0.00 87 1019.2
20260509171522 20 41 0.0 12.9 0.00 0.00 0.00 87 1019.2
20260509170013 20 60 1.6 9.7 0.00 0.00 0.00 87 1019.4
20260509164512 20 352 0.0 9.7 0.00 0.00 0.00 87 1019.3
20260509163018 20 82 3.2 6.4 0.00 0.00 0.00 87 1019.4
20260509161503 20 75 3.2 8.0 0.00 0.00 0.00 87 1019.6
20260509160005 19 50 3.2 8.0 0.00 0.00 0.00 87 1019.7
20260509154508 19 71 4.8 11.3 0.00 0.00 0.00 88 1019.8
20260509153014 19 72 3.2 8.0 0.00 0.00 0.00 88 1020.0
20260509151517 19 82 1.6 8.0 0.00 0.00 0.00 87 1020.0
20260509150004 19 66 3.2 8.0 0.00 0.00 0.00 87 1020.1
20260509144507 20 112 3.2 11.3 0.00 0.00 0.00 86 1020.1
20260509143010 19 44 4.8 11.3 0.00 0.00 0.00 86 1020.3
20260509141512 19 32 3.2 8.0 0.00 0.00 0.00 86 1020.2
20260509140017 19 72 3.2 9.7 0.00 0.00 0.00 86 1020.5
20260509134504 19 77 1.6 6.4 0.00 0.00 0.00 86 1020.5
20260509133005 19 68 1.6 8.0 0.00 0.00 0.00 86 1020.6
20260509131508 19 65 1.6 9.7 0.00 0.00 0.00 85 1020.5
20260509130014 19 73 3.2 11.3 0.00 0.00 0.00 84 1020.6
20260509121507 19 85 3.2 6.4 0.00 0.00 0.00 83 1020.7
20260509120011 19 76 4.8 11.3 0.00 0.00 0.00 82 1020.8
20260509114516 19 49 4.8 8.0 0.00 0.00 0.00 81 1021.0
20260509111522 19 81 3.2 8.0 0.00 0.00 0.00 80 1021.1
20260509110006 19 48 1.6 4.8 0.00 0.00 0.00 80 1021.2
20260509104513 20 74 3.2 6.4 0.00 0.00 0.00 79 1021.4
20260509103015 20 27 3.2 9.7 0.00 0.00 0.00 78 1021.2
20260509101522 20 31 0.0 11.3 0.00 0.00 0.00 78 1021.3
20260509100024 20 46 1.6 6.4 0.00 0.00 0.00 77 1021.2
20260509094511 20 82 4.8 11.3 0.00 0.00 0.00 78 1021.1
20260509093012 20 75 0.0 8.0 0.00 0.00 0.00 77 1020.9
20260509091519 20 65 0.0 6.4 0.00 0.00 0.00 77 1020.7
20260509090023 21 68 0.0 6.4 0.00 0.00 0.00 77 1020.5
20260509084528 21 105 1.6 6.4 0.00 0.00 0.00 77 1020.3
20260509083012 21 238 1.6 8.0 0.00 0.00 0.00 77 1020.1
20260509081516 21 154 0.0 4.8 0.00 0.00 0.00 77 1019.8
20260509080021 21 84 0.0 4.8 0.00 0.00 0.00 77 1019.6
20260509074524 21 111 0.0 4.8 0.00 0.00 0.00 79 1019.6
20260509073040 21 92 0.0 3.2 0.00 0.00 0.00 77 1019.4
20260509071510 21 143 0.0 4.8 0.00 0.00 0.00 75 1019.3
20260509070013 21 102 0.0 4.8 0.00 0.00 0.00 72 1019.1
20260509064504 22 151 0.0 6.4 0.00 0.00 0.00 72 1019.0
20260509063009 22 37 1.6 8.0 0.00 0.00 0.00 71 1018.8
20260509061505 22 156 0.0 8.0 0.00 0.00 0.00 71 1018.6
20260509060010 22 85 0.0 6.4 0.00 0.00 0.00 69 1018.4
20260509054519 23 56 1.6 14.5 0.00 0.00 0.00 69 1018.3
20260509053003 23 76 0.0 6.4 0.00 0.00 0.00 68 1018.3
20260509051506 23 231 1.6 6.4 0.00 0.00 0.00 68 1018.1
20260509050009 23 200 1.6 8.0 0.00 0.00 0.00 66 1018.1
20260509044530 23 299 1.6 9.7 0.00 0.00 0.00 67 1018.0
20260509043023 24 150 0.0 11.3 0.00 0.00 0.00 66 1017.9
20260509041505 24 120 1.6 6.4 0.00 0.00 0.00 63 1018.0
20260509040005 24 185 0.0 8.0 0.00 0.00 0.00 62 1018.1
20260509034508 25 74 1.6 8.0 0.00 0.00 0.00 58 1018.2
20260509033010 25 134 1.6 9.7 0.00 0.00 0.00 55 1018.2
20260509031522 25 313 0.0 6.4 0.00 0.00 0.00 57 1018.3
20260509030005 25 163 1.6 9.7 0.00 0.00 0.00 51 1018.4
20260509024508 24 129 1.6 8.0 0.00 0.00 0.00 51 1018.7
20260509023010 24 92 0.0 8.0 0.00 0.00 0.00 54 1018.9
20260509021533 24 355 1.6 11.3 0.00 0.00 0.00 53 1019.2
20260509020016 24 212 0.0 4.8 0.00 0.00 0.00 51 1019.3
20260509014524 24 310 3.2 8.0 0.00 0.00 0.00 54 1019.5
20260509013008 24 250 1.6 8.0 0.00 0.00 0.00 52 1019.8
20260509011508 23 56 3.2 16.1 0.00 0.00 0.00 47 1020.2
20260509010019 23 265 1.6 6.4 0.00 0.00 0.00 49 1020.3
20260509004524 23 67 1.6 17.7 0.00 0.00 0.00 50 1020.3
20260509003024 23 115 1.6 8.0 0.00 0.00 0.00 45 1020.4
20260509001508 23 211 1.6 12.9 0.00 0.00 0.00 47 1020.4
20260509000011 22 222 1.6 11.3 0.00 0.00 0.00 49 1020.3
20260508234524 22 69 1.6 9.7 0.00 0.00 0.00 47 1020.3
20260508231526 22 70 3.2 9.7 0.00 0.00 0.00 46 1020.4
20260508230008 21 70 1.6 11.3 0.00 0.00 0.00 49 1020.3